| time (UTC) | temp C | wind direction | speed KPH | gust KPH | rain 1hr cm | rain 24hr cm | rain mn cm | humidity % | barometer mb |
| 20260506044637 | 22 | 223 | 4.8 | 4.8 | 0.00 | 0.00 | 0.00 | 53 | 1010.1 |
| 20260506044133 | 22 | 197 | 3.2 | 3.2 | 0.00 | 0.00 | 0.00 | 52 | 1010.1 |
| 20260506043631 | 21 | 150 | 6.4 | 6.4 | 0.00 | 0.00 | 0.00 | 52 | 1010.1 |
| 20260506043129 | 21 | 208 | 3.2 | 4.8 | 0.00 | 0.00 | 0.00 | 52 | 1010.1 |
| 20260506042627 | 21 | 209 | 4.8 | 4.8 | 0.00 | 0.00 | 0.00 | 51 | 1010.0 |
| 20260506042125 | 21 | 229 | 3.2 | 3.2 | 0.00 | 0.00 | 0.00 | 51 | 1010.2 |
| 20260506041624 | 21 | 198 | 3.2 | 4.8 | 0.00 | 0.00 | 0.00 | 51 | 1010.0 |
| 20260506041120 | 21 | 227 | 3.2 | 4.8 | 0.00 | 0.00 | 0.00 | 50 | 1010.1 |
| 20260506040618 | 21 | 215 | 1.6 | 1.6 | 0.00 | 0.00 | 0.00 | 50 | 1010.0 |
| 20260506040114 | 21 | 208 | 6.4 | 9.7 | 0.00 | 0.00 | 0.00 | 49 | 1010.0 |
| 20260506035611 | 21 | 217 | 3.2 | 4.8 | 0.00 | 0.00 | 0.00 | 49 | 1010.0 |
| 20260506035108 | 22 | 202 | 1.6 | 1.6 | 0.00 | 0.00 | 0.00 | 48 | 1009.8 |
| 20260506034605 | 22 | 190 | 3.2 | 3.2 | 0.00 | 0.00 | 0.00 | 48 | 1009.9 |
| 20260506034102 | 22 | 184 | 4.8 | 6.4 | 0.00 | 0.00 | 0.00 | 47 | 1010.0 |
| 20260506033559 | 22 | 217 | 3.2 | 3.2 | 0.00 | 0.00 | 0.00 | 47 | 1010.0 |
| 20260506033056 | 22 | 207 | 1.6 | 1.6 | 0.00 | 0.00 | 0.00 | 47 | 1009.9 |
| 20260506032553 | 22 | 207 | 3.2 | 4.8 | 0.00 | 0.00 | 0.00 | 46 | 1009.8 |
| 20260506032050 | 22 | 186 | 3.2 | 3.2 | 0.00 | 0.00 | 0.00 | 46 | 1009.7 |
| 20260506031548 | 22 | 201 | 3.2 | 3.2 | 0.00 | 0.00 | 0.00 | 46 | 1009.9 |
| 20260506031044 | 22 | 218 | 3.2 | 4.8 | 0.00 | 0.00 | 0.00 | 45 | 1009.9 |
| 20260506030543 | 22 | 230 | 1.6 | 1.6 | 0.00 | 0.00 | 0.00 | 45 | 1009.8 |
| 20260506030039 | 22 | 211 | 3.2 | 3.2 | 0.00 | 0.00 | 0.00 | 44 | 1009.8 |
| 20260506025536 | 22 | 208 | 3.2 | 3.2 | 0.00 | 0.00 | 0.00 | 44 | 1009.9 |
| 20260506025032 | 22 | 216 | 1.6 | 3.2 | 0.00 | 0.00 | 0.00 | 45 | 1009.8 |
| 20260506024530 | 22 | 209 | 1.6 | 3.2 | 0.00 | 0.00 | 0.00 | 44 | 1009.6 |
| 20260506024026 | 22 | 223 | 3.2 | 3.2 | 0.00 | 0.00 | 0.00 | 44 | 1009.8 |
| 20260506023522 | 22 | 193 | 3.2 | 3.2 | 0.00 | 0.00 | 0.00 | 43 | 1009.7 |
| 20260506023020 | 22 | 198 | 3.2 | 3.2 | 0.00 | 0.00 | 0.00 | 44 | 1009.9 |
| 20260506022517 | 22 | 204 | 3.2 | 3.2 | 0.00 | 0.00 | 0.00 | 43 | 1009.9 |
| 20260506022014 | 22 | 200 | 3.2 | 3.2 | 0.00 | 0.00 | 0.00 | 43 | 1009.8 |
| 20260506021512 | 22 | 221 | 3.2 | 3.2 | 0.00 | 0.00 | 0.00 | 42 | 1009.9 |
| 20260506021009 | 22 | 188 | 1.6 | 1.6 | 0.00 | 0.00 | 0.00 | 42 | 1009.9 |
| 20260506020507 | 22 | 178 | 3.2 | 4.8 | 0.00 | 0.00 | 0.00 | 41 | 1009.9 |
| 20260506020004 | 22 | 201 | 1.6 | 3.2 | 0.00 | 0.00 | 0.00 | 41 | 1009.9 |
| 20260506015501 | 23 | 212 | 3.2 | 3.2 | 0.00 | 0.00 | 0.00 | 40 | 1009.7 |
| 20260506014958 | 23 | 219 | 3.2 | 4.8 | 0.00 | 0.00 | 0.00 | 39 | 1009.7 |
| 20260506014455 | 23 | 207 | 1.6 | 1.6 | 0.00 | 0.00 | 0.00 | 39 | 1009.5 |
| 20260506013951 | 23 | 201 | 1.6 | 1.6 | 0.00 | 0.00 | 0.00 | 38 | 1009.6 |
| 20260506013449 | 23 | 173 | 6.4 | 6.4 | 0.00 | 0.00 | 0.00 | 37 | 1009.6 |
| 20260506012945 | 23 | 207 | 1.6 | 1.6 | 0.00 | 0.00 | 0.00 | 37 | 1009.6 |
| 20260506012442 | 23 | 174 | 3.2 | 3.2 | 0.00 | 0.00 | 0.00 | 37 | 1009.3 |
| 20260506011938 | 23 | 180 | 3.2 | 3.2 | 0.00 | 0.00 | 0.00 | 37 | 1009.4 |
| 20260506011436 | 23 | 178 | 3.2 | 4.8 | 0.00 | 0.00 | 0.00 | 37 | 1009.5 |
| 20260506010933 | 23 | 192 | 1.6 | 3.2 | 0.00 | 0.00 | 0.00 | 36 | 1009.5 |
| 20260506010432 | 24 | 198 | 3.2 | 3.2 | 0.00 | 0.00 | 0.00 | 35 | 1009.3 |
| 20260506005927 | 24 | 214 | 3.2 | 3.2 | 0.00 | 0.00 | 0.00 | 34 | 1009.1 |
| 20260506005425 | 24 | 204 | 3.2 | 3.2 | 0.00 | 0.00 | 0.00 | 34 | 1009.1 |
| 20260506004920 | 25 | 212 | 3.2 | 4.8 | 0.00 | 0.00 | 0.00 | 34 | 1009.1 |
| 20260506004419 | 25 | 201 | 4.8 | 4.8 | 0.00 | 0.00 | 0.00 | 33 | 1009.1 |
| 20260506003914 | 25 | 256 | 4.8 | 6.4 | 0.00 | 0.00 | 0.00 | 33 | 1009.1 |
| 20260506003411 | 25 | 218 | 3.2 | 3.2 | 0.00 | 0.00 | 0.00 | 33 | 1009.1 |
| 20260506002908 | 25 | 166 | 4.8 | 4.8 | 0.00 | 0.00 | 0.00 | 33 | 1008.7 |
| 20260506002403 | 25 | 230 | 4.8 | 6.4 | 0.00 | 0.00 | 0.00 | 33 | 1008.8 |
| 20260506001859 | 25 | 252 | 6.4 | 9.7 | 0.00 | 0.00 | 0.00 | 33 | 1008.8 |
| 20260506001356 | 25 | 216 | 6.4 | 9.7 | 0.00 | 0.00 | 0.00 | 33 | 1008.6 |
| 20260506000853 | 25 | 167 | 4.8 | 4.8 | 0.00 | 0.00 | 0.00 | 34 | 1008.7 |
| 20260506000353 | 25 | 220 | 3.2 | 4.8 | 0.00 | 0.00 | 0.00 | 34 | 1008.6 |
| 20260505235847 | 25 | 216 | 6.4 | 6.4 | 0.00 | 0.00 | 0.00 | 33 | 1008.6 |
| 20260505235345 | 25 | 224 | 3.2 | 4.8 | 0.00 | 0.00 | 0.00 | 34 | 1008.5 |
| 20260505234842 | 26 | 214 | 4.8 | 6.4 | 0.00 | 0.00 | 0.00 | 34 | 1008.5 |
| 20260505234340 | 26 | 201 | 3.2 | 4.8 | 0.00 | 0.00 | 0.00 | 33 | 1008.7 |
| 20260505233836 | 26 | 185 | 4.8 | 6.4 | 0.00 | 0.00 | 0.00 | 33 | 1008.5 |
| 20260505233334 | 26 | 260 | 6.4 | 6.4 | 0.00 | 0.00 | 0.00 | 33 | 1008.4 |
| 20260505232832 | 26 | 252 | 4.8 | 6.4 | 0.00 | 0.00 | 0.00 | 32 | 1008.6 |
| 20260505232329 | 26 | 199 | 6.4 | 6.4 | 0.00 | 0.00 | 0.00 | 32 | 1008.8 |
| 20260505231825 | 26 | 242 | 9.7 | 11.3 | 0.00 | 0.00 | 0.00 | 32 | 1008.4 |
| 20260505231324 | 26 | 213 | 6.4 | 9.7 | 0.00 | 0.00 | 0.00 | 32 | 1008.3 |
| 20260505230822 | 26 | 225 | 3.2 | 3.2 | 0.00 | 0.00 | 0.00 | 32 | 1008.5 |
| 20260505230318 | 26 | 196 | 8.0 | 9.7 | 0.00 | 0.00 | 0.00 | 32 | 1008.4 |
| 20260505225815 | 27 | 220 | 9.7 | 11.3 | 0.00 | 0.00 | 0.00 | 32 | 1008.2 |
| 20260505225312 | 27 | 177 | 4.8 | 4.8 | 0.00 | 0.00 | 0.00 | 33 | 1008.2 |
| 20260505224807 | 27 | 199 | 6.4 | 11.3 | 0.00 | 0.00 | 0.00 | 33 | 1008.3 |
| 20260505224305 | 27 | 244 | 8.0 | 11.3 | 0.00 | 0.00 | 0.00 | 32 | 1008.4 |
| 20260505223802 | 27 | 191 | 6.4 | 9.7 | 0.00 | 0.00 | 0.00 | 32 | 1008.6 |
| 20260505223259 | 27 | 199 | 6.4 | 11.3 | 0.00 | 0.00 | 0.00 | 32 | 1008.6 |
| 20260505222755 | 27 | 240 | 6.4 | 6.4 | 0.00 | 0.00 | 0.00 | 33 | 1008.5 |
| 20260505222251 | 27 | 242 | 3.2 | 4.8 | 0.00 | 0.00 | 0.00 | 33 | 1008.5 |
| 20260505221748 | 27 | 195 | 4.8 | 4.8 | 0.00 | 0.00 | 0.00 | 34 | 1008.5 |
| 20260505221245 | 27 | 218 | 6.4 | 9.7 | 0.00 | 0.00 | 0.00 | 32 | 1008.5 |
| 20260505220742 | 27 | 184 | 6.4 | 11.3 | 0.00 | 0.00 | 0.00 | 33 | 1008.6 |
| 20260505220239 | 27 | 211 | 6.4 | 6.4 | 0.00 | 0.00 | 0.00 | 32 | 1008.5 |
| 20260505215737 | 28 | 233 | 4.8 | 6.4 | 0.00 | 0.00 | 0.00 | 32 | 1008.4 |
| 20260505215235 | 27 | 230 | 9.7 | 11.3 | 0.00 | 0.00 | 0.00 | 31 | 1008.4 |
| 20260505214733 | 27 | 204 | 8.0 | 9.7 | 0.00 | 0.00 | 0.00 | 31 | 1008.4 |
| 20260505214230 | 27 | 169 | 4.8 | 4.8 | 0.00 | 0.00 | 0.00 | 31 | 1008.5 |
| 20260505213727 | 27 | 225 | 6.4 | 9.7 | 0.00 | 0.00 | 0.00 | 31 | 1008.3 |
| 20260505213224 | 27 | 162 | 4.8 | 6.4 | 0.00 | 0.00 | 0.00 | 31 | 1008.4 |
| 20260505212720 | 27 | 221 | 8.0 | 9.7 | 0.00 | 0.00 | 0.00 | 31 | 1008.3 |
| 20260505212217 | 27 | 235 | 4.8 | 6.4 | 0.00 | 0.00 | 0.00 | 32 | 1008.6 |
| 20260505211714 | 28 | 203 | 11.3 | 12.9 | 0.00 | 0.00 | 0.00 | 31 | 1008.4 |
| 20260505211212 | 28 | 211 | 8.0 | 11.3 | 0.00 | 0.00 | 0.00 | 32 | 1008.3 |
| 20260505210708 | 28 | 176 | 8.0 | 12.9 | 0.00 | 0.00 | 0.00 | 31 | 1008.1 |
| 20260505210205 | 28 | 220 | 12.9 | 16.1 | 0.00 | 0.00 | 0.00 | 31 | 1008.3 |
| 20260505205702 | 28 | 217 | 8.0 | 9.7 | 0.00 | 0.00 | 0.00 | 31 | 1008.2 |
| 20260505205200 | 28 | 205 | 6.4 | 9.7 | 0.00 | 0.00 | 0.00 | 32 | 1008.3 |
| 20260505204657 | 29 | 214 | 9.7 | 14.5 | 0.00 | 0.00 | 0.00 | 31 | 1008.1 |
| 20260505204155 | 28 | 188 | 6.4 | 6.4 | 0.00 | 0.00 | 0.00 | 32 | 1008.3 |
| 20260505203652 | 28 | 189 | 6.4 | 6.4 | 0.00 | 0.00 | 0.00 | 32 | 1008.2 |
| 20260505203148 | 29 | 165 | 9.7 | 12.9 | 0.00 | 0.00 | 0.00 | 31 | 1008.2 |
| 20260505202644 | 29 | 189 | 6.4 | 9.7 | 0.00 | 0.00 | 0.00 | 34 | 1008.3 |
| 20260505202140 | 29 | 188 | 6.4 | 9.7 | 0.00 | 0.00 | 0.00 | 32 | 1008.4 |
| 20260505201637 | 29 | 174 | 6.4 | 6.4 | 0.00 | 0.00 | 0.00 | 32 | 1008.3 |
| 20260505201135 | 29 | 210 | 8.0 | 9.7 | 0.00 | 0.00 | 0.00 | 34 | 1008.3 |
| 20260505200633 | 29 | 182 | 6.4 | 9.7 | 0.00 | 0.00 | 0.00 | 34 | 1008.3 |
| 20260505200129 | 28 | 198 | 6.4 | 6.4 | 0.00 | 0.00 | 0.00 | 34 | 1008.3 |
| 20260505195625 | 29 | 142 | 8.0 | 11.3 | 0.00 | 0.00 | 0.00 | 33 | 1008.5 |
| 20260505195123 | 29 | 212 | 9.7 | 12.9 | 0.00 | 0.00 | 0.00 | 33 | 1008.5 |
| 20260505194620 | 28 | 221 | 8.0 | 9.7 | 0.00 | 0.00 | 0.00 | 34 | 1008.3 |
| 20260505194116 | 28 | 209 | 6.4 | 9.7 | 0.00 | 0.00 | 0.00 | 36 | 1008.4 |
| 20260505193613 | 28 | 234 | 6.4 | 9.7 | 0.00 | 0.00 | 0.00 | 34 | 1008.8 |
| 20260505193110 | 28 | 249 | 14.5 | 14.5 | 0.00 | 0.00 | 0.00 | 35 | 1008.7 |
| 20260505192609 | 28 | 202 | 8.0 | 9.7 | 0.00 | 0.00 | 0.00 | 35 | 1008.9 |
| 20260505192106 | 28 | 174 | 8.0 | 11.3 | 0.00 | 0.00 | 0.00 | 37 | 1008.9 |
| 20260505191604 | 28 | 154 | 8.0 | 12.9 | 0.00 | 0.00 | 0.00 | 38 | 1008.9 |
| 20260505191101 | 28 | 225 | 3.2 | 4.8 | 0.00 | 0.00 | 0.00 | 38 | 1008.9 |
| 20260505190556 | 28 | 193 | 6.4 | 9.7 | 0.00 | 0.00 | 0.00 | 37 | 1009.1 |
| 20260505190052 | 28 | 209 | 8.0 | 11.3 | 0.00 | 0.00 | 0.00 | 37 | 1009.0 |
| 20260505185549 | 28 | 250 | 6.4 | 9.7 | 0.00 | 0.00 | 0.00 | 36 | 1009.4 |
| 20260505185045 | 28 | 208 | 6.4 | 6.4 | 0.00 | 0.00 | 0.00 | 36 | 1009.3 |
| 20260505184542 | 28 | 225 | 6.4 | 6.4 | 0.00 | 0.00 | 0.00 | 34 | 1009.4 |
| 20260505184039 | 28 | 196 | 6.4 | 6.4 | 0.00 | 0.00 | 0.00 | 36 | 1009.4 |
| 20260505183535 | 28 | 203 | 4.8 | 6.4 | 0.00 | 0.00 | 0.00 | 35 | 1009.6 |
| 20260505183033 | 27 | 213 | 3.2 | 3.2 | 0.00 | 0.00 | 0.00 | 36 | 1009.4 |
| 20260505182529 | 27 | 197 | 4.8 | 6.4 | 0.00 | 0.00 | 0.00 | 39 | 1009.5 |
| 20260505182026 | 27 | 197 | 6.4 | 6.4 | 0.00 | 0.00 | 0.00 | 34 | 1009.6 |
| 20260505181523 | 27 | 174 | 6.4 | 6.4 | 0.00 | 0.00 | 0.00 | 35 | 1009.6 |
| 20260505181020 | 27 | 251 | 6.4 | 12.9 | 0.00 | 0.00 | 0.00 | 35 | 1009.7 |
| 20260505180516 | 27 | 221 | 4.8 | 4.8 | 0.00 | 0.00 | 0.00 | 37 | 1009.7 |
| 20260505180014 | 27 | 182 | 6.4 | 6.4 | 0.00 | 0.00 | 0.00 | 36 | 1009.8 |
| 20260505175508 | 27 | 188 | 3.2 | 4.8 | 0.00 | 0.00 | 0.00 | 37 | 1009.9 |
| 20260505175006 | 27 | 145 | 6.4 | 9.7 | 0.00 | 0.00 | 0.00 | 37 | 1010.1 |
| 20260505174503 | 27 | 165 | 6.4 | 6.4 | 0.00 | 0.00 | 0.00 | 38 | 1010.2 |
| 20260505173959 | 27 | 184 | 4.8 | 4.8 | 0.00 | 0.00 | 0.00 | 38 | 1010.2 |
| 20260505173455 | 27 | 176 | 8.0 | 11.3 | 0.00 | 0.00 | 0.00 | 39 | 1010.2 |
| 20260505172952 | 27 | 230 | 6.4 | 6.4 | 0.00 | 0.00 | 0.00 | 37 | 1010.2 |
| 20260505172451 | 27 | 210 | 4.8 | 4.8 | 0.00 | 0.00 | 0.00 | 38 | 1010.3 |
| 20260505171950 | 27 | 230 | 8.0 | 11.3 | 0.00 | 0.00 | 0.00 | 36 | 1010.4 |
| 20260505171447 | 27 | 224 | 3.2 | 3.2 | 0.00 | 0.00 | 0.00 | 40 | 1010.4 |
| 20260505170944 | 27 | 212 | 4.8 | 6.4 | 0.00 | 0.00 | 0.00 | 38 | 1010.4 |
| 20260505170440 | 27 | 192 | 6.4 | 9.7 | 0.00 | 0.00 | 0.00 | 41 | 1010.3 |
| 20260505165936 | 27 | 243 | 4.8 | 4.8 | 0.00 | 0.00 | 0.00 | 38 | 1010.5 |
| 20260505165432 | 27 | 198 | 6.4 | 11.3 | 0.00 | 0.00 | 0.00 | 40 | 1010.6 |
| 20260505164927 | 27 | 199 | 4.8 | 4.8 | 0.00 | 0.00 | 0.00 | 39 | 1010.6 |
| 20260505164424 | 26 | 186 | 3.2 | 4.8 | 0.00 | 0.00 | 0.00 | 40 | 1010.7 |
| 20260505163922 | 27 | 234 | 3.2 | 4.8 | 0.00 | 0.00 | 0.00 | 39 | 1011.1 |
| 20260505163421 | 26 | 233 | 4.8 | 6.4 | 0.00 | 0.00 | 0.00 | 38 | 1011.0 |
| 20260505162920 | 26 | 246 | 6.4 | 11.3 | 0.00 | 0.00 | 0.00 | 39 | 1011.2 |
| 20260505162415 | 26 | 254 | 6.4 | 6.4 | 0.00 | 0.00 | 0.00 | 39 | 1011.1 |
| 20260505161912 | 27 | 208 | 6.4 | 6.4 | 0.00 | 0.00 | 0.00 | 39 | 1011.1 |
| 20260505161409 | 26 | 240 | 4.8 | 6.4 | 0.00 | 0.00 | 0.00 | 39 | 1011.1 |
| 20260505160906 | 26 | 220 | 8.0 | 11.3 | 0.00 | 0.00 | 0.00 | 40 | 1011.1 |
| 20260505160404 | 26 | 204 | 4.8 | 4.8 | 0.00 | 0.00 | 0.00 | 41 | 1011.3 |
| 20260505153343 | 26 | 290 | 4.8 | 6.4 | 0.00 | 0.00 | 0.00 | 41 | 1011.5 |
| 20260505152840 | 26 | 208 | 6.4 | 9.7 | 0.00 | 0.00 | 0.00 | 41 | 1011.5 |
| 20260505152338 | 26 | 223 | 6.4 | 6.4 | 0.00 | 0.00 | 0.00 | 41 | 1011.6 |
| 20260505151837 | 26 | 223 | 4.8 | 4.8 | 0.00 | 0.00 | 0.00 | 42 | 1011.4 |
| 20260505151334 | 26 | 209 | 6.4 | 6.4 | 0.00 | 0.00 | 0.00 | 41 | 1011.1 |
| 20260505150831 | 26 | 221 | 4.8 | 6.4 | 0.00 | 0.00 | 0.00 | 43 | 1011.4 |
| 20260505150329 | 26 | 188 | 9.7 | 11.3 | 0.00 | 0.00 | 0.00 | 42 | 1011.4 |
| 20260505140258 | 23 | 189 | 3.2 | 3.2 | 0.00 | 0.00 | 0.00 | 53 | 1011.7 |
| 20260505130222 | 19 | 225 | 3.2 | 3.2 | 0.00 | 0.00 | 0.00 | 61 | 1012.3 |
| 20260505124712 | 18 | 179 | 4.8 | 6.4 | 0.00 | 0.00 | 0.00 | 64 | 1012.4 |
| 20260505124209 | 18 | 183 | 3.2 | 3.2 | 0.00 | 0.00 | 0.00 | 64 | 1012.4 |
| 20260505123705 | 18 | 185 | 1.6 | 3.2 | 0.00 | 0.00 | 0.00 | 65 | 1012.6 |
| 20260505123202 | 18 | 180 | 3.2 | 3.2 | 0.00 | 0.00 | 0.00 | 65 | 1012.5 |
| 20260505122658 | 17 | 178 | 3.2 | 3.2 | 0.00 | 0.00 | 0.00 | 66 | 1012.5 |
| 20260505122156 | 17 | 202 | 3.2 | 3.2 | 0.00 | 0.00 | 0.00 | 66 | 1012.5 |
| 20260505121652 | 17 | 212 | 1.6 | 1.6 | 0.00 | 0.00 | 0.00 | 67 | 1012.7 |
| 20260505121149 | 17 | 214 | 1.6 | 3.2 | 0.00 | 0.00 | 0.00 | 68 | 1012.5 |
| 20260505120645 | 17 | 226 | 1.6 | 1.6 | 0.00 | 0.00 | 0.00 | 70 | 1012.6 |
| 20260505120141 | 16 | 217 | 1.6 | 1.6 | 0.00 | 0.00 | 0.00 | 70 | 1012.6 |
| 20260505115635 | 16 | 213 | 1.6 | 1.6 | 0.00 | 0.00 | 0.00 | 71 | 1012.5 |
| 20260505115133 | 16 | 226 | 1.6 | 1.6 | 0.00 | 0.00 | 0.00 | 72 | 1012.5 |
| 20260505114630 | 16 | 225 | 1.6 | 1.6 | 0.00 | 0.00 | 0.00 | 73 | 1012.4 |
| 20260505114126 | 15 | 229 | 1.6 | 1.6 | 0.00 | 0.00 | 0.00 | 74 | 1012.3 |
| 20260505113623 | 15 | 229 | 1.6 | 1.6 | 0.00 | 0.00 | 0.00 | 76 | 1012.3 |
| 20260505113119 | 15 | 233 | 0.0 | 1.6 | 0.00 | 0.00 | 0.00 | 78 | 1012.2 |
| 20260505112615 | 14 | 233 | 0.0 | 0.0 | 0.00 | 0.00 | 0.00 | 80 | 1012.2 |
| 20260505112115 | 13 | 234 | 0.0 | 1.6 | 0.00 | 0.00 | 0.00 | 83 | 1012.1 |
| 20260505111613 | 13 | 234 | 0.0 | 0.0 | 0.00 | 0.00 | 0.00 | 85 | 1012.1 |
| 20260505111110 | 12 | 235 | 1.6 | 1.6 | 0.00 | 0.00 | 0.00 | 88 | 1012.0 |
| 20260505110606 | 12 | 239 | 0.0 | 0.0 | 0.00 | 0.00 | 0.00 | 91 | 1012.0 |
| 20260505102039 | 11 | 239 | 0.0 | 0.0 | 0.00 | 0.00 | 0.00 | 90 | 1011.3 |
| 20260505101537 | 11 | 240 | 0.0 | 0.0 | 0.00 | 0.00 | 0.00 | 91 | 1011.4 |
| 20260505101033 | 11 | 240 | 0.0 | 0.0 | 0.00 | 0.00 | 0.00 | 90 | 1011.1 |
| 20260505100530 | 11 | 240 | 0.0 | 0.0 | 0.00 | 0.00 | 0.00 | 90 | 1011.2 |
| 20260505100027 | 11 | 240 | 0.0 | 0.0 | 0.00 | 0.00 | 0.00 | 89 | 1011.3 |
| 20260505095523 | 11 | 240 | 0.0 | 0.0 | 0.00 | 0.00 | 0.00 | 89 | 1011.4 |
| 20260505095019 | 11 | 240 | 0.0 | 0.0 | 0.00 | 0.00 | 0.00 | 88 | 1011.4 |
| 20260505094516 | 11 | 240 | 0.0 | 0.0 | 0.00 | 0.00 | 0.00 | 87 | 1011.3 |
| 20260505094013 | 11 | 240 | 0.0 | 0.0 | 0.00 | 0.00 | 0.00 | 86 | 1011.2 |
| 20260505093509 | 12 | 240 | 0.0 | 0.0 | 0.00 | 0.00 | 0.00 | 85 | 1011.2 |
| 20260505093006 | 12 | 240 | 0.0 | 0.0 | 0.00 | 0.00 | 0.00 | 84 | 1011.3 |
| 20260505092504 | 13 | 240 | 0.0 | 0.0 | 0.00 | 0.00 | 0.00 | 82 | 1011.3 |
| 20260505092002 | 13 | 240 | 0.0 | 0.0 | 0.00 | 0.00 | 0.00 | 81 | 1011.2 |
| 20260505091459 | 13 | 240 | 1.6 | 1.6 | 0.00 | 0.00 | 0.00 | 81 | 1011.2 |
| 20260505090957 | 13 | 242 | 0.0 | 1.6 | 0.00 | 0.00 | 0.00 | 82 | 1011.3 |
| 20260505090455 | 13 | 235 | 1.6 | 1.6 | 0.00 | 0.00 | 0.00 | 83 | 1011.0 |
| 20260505085952 | 12 | 233 | 0.0 | 0.0 | 0.00 | 0.00 | 0.00 | 84 | 1011.0 |
| 20260505085449 | 12 | 233 | 0.0 | 0.0 | 0.00 | 0.00 | 0.00 | 85 | 1011.1 |
| 20260505084948 | 12 | 233 | 0.0 | 1.6 | 0.00 | 0.00 | 0.00 | 85 | 1011.3 |
| 20260505084446 | 12 | 233 | 0.0 | 0.0 | 0.00 | 0.00 | 0.00 | 83 | 1010.9 |
| 20260505083943 | 12 | 233 | 0.0 | 0.0 | 0.00 | 0.00 | 0.00 | 83 | 1010.8 |
| 20260505083440 | 12 | 232 | 0.0 | 0.0 | 0.00 | 0.00 | 0.00 | 83 | 1010.9 |
| 20260505082936 | 13 | 232 | 0.0 | 0.0 | 0.00 | 0.00 | 0.00 | 81 | 1011.0 |
| 20260505082432 | 13 | 232 | 0.0 | 0.0 | 0.00 | 0.00 | 0.00 | 81 | 1011.0 |
| 20260505081930 | 13 | 232 | 1.6 | 1.6 | 0.00 | 0.00 | 0.00 | 80 | 1010.9 |
| 20260505081426 | 13 | 232 | 0.0 | 0.0 | 0.00 | 0.00 | 0.00 | 79 | 1010.8 |
| 20260505080923 | 14 | 232 | 0.0 | 1.6 | 0.00 | 0.00 | 0.00 | 78 | 1010.8 |
| 20260505080419 | 14 | 232 | 0.0 | 0.0 | 0.00 | 0.00 | 0.00 | 77 | 1010.6 |
| 20260505075914 | 14 | 232 | 0.0 | 0.0 | 0.00 | 0.00 | 0.00 | 76 | 1010.6 |
| 20260505075412 | 15 | 232 | 0.0 | 0.0 | 0.00 | 0.00 | 0.00 | 76 | 1010.7 |
| 20260505074909 | 15 | 233 | 0.0 | 1.6 | 0.00 | 0.00 | 0.00 | 76 | 1010.6 |
| 20260505074406 | 15 | 233 | 1.6 | 1.6 | 0.00 | 0.00 | 0.00 | 76 | 1010.7 |
| 20260505073903 | 14 | 226 | 1.6 | 1.6 | 0.00 | 0.00 | 0.00 | 77 | 1010.6 |
| 20260505073401 | 14 | 225 | 1.6 | 1.6 | 0.00 | 0.00 | 0.00 | 77 | 1010.6 |
| 20260505072858 | 14 | 225 | 1.6 | 1.6 | 0.00 | 0.00 | 0.00 | 78 | 1010.6 |
| 20260505072354 | 13 | 225 | 0.0 | 1.6 | 0.00 | 0.00 | 0.00 | 78 | 1010.5 |
| 20260505071850 | 13 | 225 | 0.0 | 0.0 | 0.00 | 0.00 | 0.00 | 79 | 1010.6 |
| 20260505071346 | 13 | 225 | 0.0 | 0.0 | 0.00 | 0.00 | 0.00 | 79 | 1010.6 |
| 20260505070845 | 13 | 225 | 0.0 | 0.0 | 0.00 | 0.00 | 0.00 | 79 | 1010.6 |
| 20260505070341 | 13 | 225 | 0.0 | 0.0 | 0.00 | 0.00 | 0.00 | 79 | 1010.3 |
| 20260505065836 | 13 | 225 | 0.0 | 0.0 | 0.00 | 0.00 | 0.00 | 79 | 1010.6 |
| 20260505065333 | 13 | 225 | 0.0 | 0.0 | 0.00 | 0.00 | 0.00 | 79 | 1010.6 |
| 20260505064830 | 13 | 225 | 0.0 | 0.0 | 0.00 | 0.00 | 0.00 | 80 | 1010.4 |
| 20260505064327 | 13 | 225 | 0.0 | 0.0 | 0.00 | 0.00 | 0.00 | 80 | 1010.5 |
| 20260505063826 | 13 | 225 | 0.0 | 0.0 | 0.00 | 0.00 | 0.00 | 79 | 1010.7 |
| 20260505063321 | 13 | 225 | 0.0 | 0.0 | 0.00 | 0.00 | 0.00 | 79 | 1010.6 |
| 20260505062818 | 14 | 225 | 0.0 | 0.0 | 0.00 | 0.00 | 0.00 | 78 | 1010.5 |
| 20260505062316 | 15 | 225 | 0.0 | 0.0 | 0.00 | 0.00 | 0.00 | 76 | 1010.6 |
| 20260505061812 | 15 | 225 | 0.0 | 0.0 | 0.00 | 0.00 | 0.00 | 73 | 1010.6 |
| 20260505061310 | 15 | 225 | 0.0 | 0.0 | 0.00 | 0.00 | 0.00 | 72 | 1010.8 |
| 20260505060808 | 15 | 225 | 0.0 | 1.6 | 0.00 | 0.00 | 0.00 | 72 | 1010.6 |
| 20260505060304 | 15 | 225 | 0.0 | 0.0 | 0.00 | 0.00 | 0.00 | 72 | 1010.6 |
| 20260505055800 | 15 | 225 | 0.0 | 0.0 | 0.00 | 0.00 | 0.00 | 73 | 1010.6 |
| 20260505055256 | 15 | 225 | 0.0 | 1.6 | 0.00 | 0.00 | 0.00 | 74 | 1010.8 |
| 20260505054753 | 15 | 225 | 0.0 | 0.0 | 0.00 | 0.00 | 0.00 | 73 | 1010.6 |
| 20260505054251 | 16 | 225 | 0.0 | 0.0 | 0.00 | 0.00 | 0.00 | 70 | 1010.7 |
| 20260505053749 | 16 | 225 | 0.0 | 1.6 | 0.00 | 0.00 | 0.00 | 69 | 1010.4 |
| 20260505053246 | 16 | 225 | 1.6 | 1.6 | 0.00 | 0.00 | 0.00 | 68 | 1010.5 |
| 20260505052743 | 16 | 225 | 0.0 | 1.6 | 0.00 | 0.00 | 0.00 | 67 | 1010.5 |
| 20260505052240 | 16 | 225 | 1.6 | 1.6 | 0.00 | 0.00 | 0.00 | 66 | 1010.6 |
| 20260505051736 | 17 | 226 | 1.6 | 1.6 | 0.00 | 0.00 | 0.00 | 66 | 1010.6 |
| 20260505051234 | 17 | 227 | 1.6 | 1.6 | 0.00 | 0.00 | 0.00 | 66 | 1010.3 |
| 20260505050732 | 17 | 224 | 1.6 | 3.2 | 0.00 | 0.00 | 0.00 | 65 | 1010.7 |
| 20260505050230 | 17 | 219 | 1.6 | 1.6 | 0.00 | 0.00 | 0.00 | 65 | 1010.7 |